Location: Mascot Post Office (historical)
(40.2645°N, 99.5462°W)
Time: 17:15:34
(UTC+00:00)

Cosmos 1825 - Pass Details

Date: 14 July 2020
Orbit: 503 x 508 km, 82.5° (Epoch: 04 August)

Event Time Altitude Azimuth Distance (km) Brightness Sun altitude
Exits shadow 05:00:41 38° 262° (W) 783 3.1 -23.6°
Maximum altitude 05:01:08 40° 281° (W) 758 3.2 -23.6°
Drops below altitude 10° 05:04:44 10° 353° (N) 1,734 5.8 -23.9°
Sets 05:06:58 0° 0° (N) 2,624 6.8 -24.1°
